Year,Month,Day,Hour,Minute,Value (Times are PST for temperature in C)
2015,11,26,14,15,7.60
2015,11,26,14,16,7.60
2015,11,26,14,17,7.60
2015,11,26,14,18,7.60
2015,11,26,14,19,7.60
2015,11,26,14,20,7.60
2015,11,26,14,21,7.60
2015,11,26,14,22,7.60
2015,11,26,14,23,7.60
2015,11,26,14,24,7.60
2015,11,26,14,25,7.60
2015,11,26,14,26,7.50
2015,11,26,14,27,7.50
2015,11,26,14,28,7.60
2015,11,26,14,29,7.60
2015,11,26,14,30,7.50
2015,11,26,14,31,7.60
2015,11,26,14,32,7.60
2015,11,26,14,33,7.60
2015,11,26,14,34,7.60
2015,11,26,14,35,7.60
2015,11,26,14,36,7.60
2015,11,26,14,37,7.60
2015,11,26,14,38,7.60
2015,11,26,14,39,7.60
2015,11,26,14,40,7.60
2015,11,26,14,41,7.60
2015,11,26,14,42,7.70
2015,11,26,14,43,7.70
2015,11,26,14,44,7.70
2015,11,26,14,45,7.70
2015,11,26,14,46,7.70
2015,11,26,14,47,7.60
2015,11,26,14,48,7.60
2015,11,26,14,49,7.60
2015,11,26,14,50,7.60
2015,11,26,14,51,7.60
2015,11,26,14,52,7.60
2015,11,26,14,53,7.60
2015,11,26,14,54,7.60
2015,11,26,14,55,7.60
2015,11,26,14,56,7.60
2015,11,26,14,57,7.60
2015,11,26,14,58,7.60
2015,11,26,14,59,7.60
2015,11,26,15,00,7.60
2015,11,26,15,01,7.60
2015,11,26,15,02,7.60
2015,11,26,15,03,7.60
2015,11,26,15,04,7.60
2015,11,26,15,05,7.60
2015,11,26,15,06,7.60
2015,11,26,15,07,7.60
2015,11,26,15,08,7.60
2015,11,26,15,09,7.60
2015,11,26,15,10,7.60
2015,11,26,15,11,7.70
2015,11,26,15,12,7.70
2015,11,26,15,13,7.70
2015,11,26,15,14,7.70
2015,11,26,15,15,7.70
2015,11,26,15,16,7.70
2015,11,26,15,17,7.70
2015,11,26,15,18,7.70
2015,11,26,15,19,7.70
2015,11,26,15,20,7.70
2015,11,26,15,21,7.70
2015,11,26,15,22,7.70
2015,11,26,15,23,7.70
2015,11,26,15,24,7.70
2015,11,26,15,25,7.70
2015,11,26,15,26,7.70
2015,11,26,15,27,7.70
2015,11,26,15,28,7.70
2015,11,26,15,29,7.70
2015,11,26,15,30,7.70
2015,11,26,15,31,7.70
2015,11,26,15,32,7.70
2015,11,26,15,33,7.70
2015,11,26,15,34,7.70
2015,11,26,15,35,7.70
2015,11,26,15,36,7.70
2015,11,26,15,37,7.70
2015,11,26,15,38,7.70
2015,11,26,15,39,7.70
2015,11,26,15,40,7.70
2015,11,26,15,41,7.70
2015,11,26,15,42,7.60
2015,11,26,15,43,7.60
2015,11,26,15,44,7.60
2015,11,26,15,45,7.60
2015,11,26,15,46,7.60
2015,11,26,15,47,7.50
2015,11,26,15,48,7.50
2015,11,26,15,49,7.50
2015,11,26,15,50,7.50
2015,11,26,15,51,7.50
2015,11,26,15,52,7.40
2015,11,26,15,53,7.40
2015,11,26,15,54,7.40
2015,11,26,15,55,7.40
2015,11,26,15,56,7.40
2015,11,26,15,57,7.40
2015,11,26,15,58,7.30
2015,11,26,15,59,7.30
2015,11,26,16,00,7.30
2015,11,26,16,01,7.30
2015,11,26,16,02,7.30
2015,11,26,16,03,7.30
2015,11,26,16,04,7.20
2015,11,26,16,05,7.20
2015,11,26,16,06,7.20
2015,11,26,16,07,7.20
2015,11,26,16,08,7.10
2015,11,26,16,09,7.10
2015,11,26,16,10,7.10
2015,11,26,16,11,7.00
2015,11,26,16,12,7.00
2015,11,26,16,13,6.90
2015,11,26,16,14,6.90
2015,11,26,16,15,6.90
2015,11,26,16,16,6.80
2015,11,26,16,17,6.80
2015,11,26,16,18,6.80
2015,11,26,16,19,6.70
2015,11,26,16,20,6.70
2015,11,26,16,21,6.70
2015,11,26,16,22,6.70
2015,11,26,16,23,6.70
2015,11,26,16,24,6.60
2015,11,26,16,25,6.60
2015,11,26,16,26,6.60
2015,11,26,16,27,6.50
2015,11,26,16,28,6.50
2015,11,26,16,29,6.40
2015,11,26,16,30,6.40
2015,11,26,16,31,6.40
2015,11,26,16,32,6.30
2015,11,26,16,33,6.30
2015,11,26,16,34,6.30
2015,11,26,16,35,6.30
2015,11,26,16,36,6.30
2015,11,26,16,37,6.20
2015,11,26,16,38,6.20
2015,11,26,16,39,6.20
2015,11,26,16,40,6.20
2015,11,26,16,41,6.10
2015,11,26,16,42,6.10
2015,11,26,16,43,6.10
2015,11,26,16,44,6.00
2015,11,26,16,45,6.00
2015,11,26,16,46,5.90
2015,11,26,16,47,5.90
2015,11,26,16,48,5.90
2015,11,26,16,49,5.80
2015,11,26,16,50,5.80
2015,11,26,16,51,5.80
2015,11,26,16,52,5.70
2015,11,26,16,53,5.70
2015,11,26,16,54,5.70
2015,11,26,16,55,5.60
2015,11,26,16,56,5.60
2015,11,26,16,57,5.60
2015,11,26,16,58,5.60
2015,11,26,16,59,5.60
2015,11,26,17,00,5.60
2015,11,26,17,01,5.60
2015,11,26,17,02,5.60
2015,11,26,17,03,5.50
2015,11,26,17,04,5.50
2015,11,26,17,05,5.40
2015,11,26,17,06,5.40
2015,11,26,17,07,5.30
2015,11,26,17,08,5.30
2015,11,26,17,09,5.20
2015,11,26,17,10,5.20
2015,11,26,17,11,5.10
2015,11,26,17,12,5.10
2015,11,26,17,13,5.00
2015,11,26,17,14,5.00
2015,11,26,17,15,5.00
2015,11,26,17,16,4.90
2015,11,26,17,17,4.90
2015,11,26,17,18,4.90
2015,11,26,17,19,4.90
2015,11,26,17,20,4.90
2015,11,26,17,21,4.90
2015,11,26,17,22,4.80
2015,11,26,17,23,4.80
2015,11,26,17,24,4.80
2015,11,26,17,25,4.70
2015,11,26,17,26,4.70
2015,11,26,17,27,4.70
2015,11,26,17,28,4.60
2015,11,26,17,29,4.60
2015,11,26,17,30,4.50
2015,11,26,17,31,4.50
2015,11,26,17,32,4.50
2015,11,26,17,33,4.50
2015,11,26,17,34,4.40
2015,11,26,17,35,4.50
2015,11,26,17,36,4.40
2015,11,26,17,37,4.40
2015,11,26,17,38,4.40
2015,11,26,17,39,4.30
2015,11,26,17,40,4.30
2015,11,26,17,41,4.20
2015,11,26,17,42,4.20
2015,11,26,17,43,4.10
2015,11,26,17,44,4.10
2015,11,26,17,45,4.00
2015,11,26,17,46,4.00
2015,11,26,17,47,3.90
2015,11,26,17,48,3.90
2015,11,26,17,49,3.80
2015,11,26,17,50,3.80
2015,11,26,17,51,3.80
2015,11,26,17,52,3.70
2015,11,26,17,53,3.70
2015,11,26,17,54,3.70
2015,11,26,17,55,3.60
2015,11,26,17,56,3.60
2015,11,26,17,57,3.50
2015,11,26,17,58,3.50
2015,11,26,17,59,3.40
2015,11,26,18,00,3.40
2015,11,26,18,01,3.30
2015,11,26,18,02,3.30
2015,11,26,18,03,3.20
2015,11,26,18,04,3.20
2015,11,26,18,05,3.20
2015,11,26,18,06,3.20
2015,11,26,18,07,3.10
2015,11,26,18,08,3.10
2015,11,26,18,09,3.10
2015,11,26,18,10,3.10
2015,11,26,18,11,3.10
2015,11,26,18,12,3.10
2015,11,26,18,13,3.10
2015,11,26,18,14,3.10
2015,11,26,18,15,3.00
2015,11,26,18,16,3.00
2015,11,26,18,17,3.00
2015,11,26,18,18,3.00
2015,11,26,18,19,2.90
2015,11,26,18,20,2.90
2015,11,26,18,21,2.80
2015,11,26,18,22,2.80
2015,11,26,18,23,2.80
2015,11,26,18,24,2.70
2015,11,26,18,25,2.70
2015,11,26,18,26,2.70
2015,11,26,18,27,2.70
2015,11,26,18,28,2.70
2015,11,26,18,29,2.80
2015,11,26,18,30,2.80
2015,11,26,18,31,2.80
2015,11,26,18,32,2.90
2015,11,26,18,33,2.90
2015,11,26,18,34,3.00
2015,11,26,18,35,3.10
2015,11,26,18,36,3.10
2015,11,26,18,37,3.20
2015,11,26,18,38,3.20
2015,11,26,18,39,3.20
2015,11,26,18,40,3.20
2015,11,26,18,41,3.20
2015,11,26,18,42,3.20
2015,11,26,18,43,3.20
2015,11,26,18,44,3.20
2015,11,26,18,45,3.20
2015,11,26,18,46,3.20
2015,11,26,18,47,3.10
2015,11,26,18,48,3.10
2015,11,26,18,49,3.10
2015,11,26,18,50,3.00
2015,11,26,18,51,3.00
2015,11,26,18,52,2.90
2015,11,26,18,53,2.90
2015,11,26,18,54,2.80
2015,11,26,18,55,2.80
2015,11,26,18,56,2.70
2015,11,26,18,57,2.60
2015,11,26,18,58,2.60
2015,11,26,18,59,2.50
2015,11,26,19,00,2.50
2015,11,26,19,01,2.40
2015,11,26,19,02,2.30
2015,11,26,19,03,2.30
2015,11,26,19,04,2.20
2015,11,26,19,05,2.10
2015,11,26,19,06,2.10
2015,11,26,19,07,2.00
2015,11,26,19,08,2.00
2015,11,26,19,09,1.90
2015,11,26,19,10,1.90
2015,11,26,19,11,1.90
2015,11,26,19,12,1.80
2015,11,26,19,13,1.80
2015,11,26,19,14,1.80
2015,11,26,19,15,1.80
2015,11,26,19,16,1.70
2015,11,26,19,17,1.70
2015,11,26,19,18,1.70
2015,11,26,19,19,1.70
2015,11,26,19,20,1.70
2015,11,26,19,21,1.70
2015,11,26,19,22,1.70
2015,11,26,19,23,1.60
2015,11,26,19,24,1.60
2015,11,26,19,25,1.60
2015,11,26,19,26,1.60
2015,11,26,19,27,1.60
2015,11,26,19,28,1.60
2015,11,26,19,29,1.60
2015,11,26,19,30,1.60
2015,11,26,19,31,1.60
2015,11,26,19,32,1.60
2015,11,26,19,33,1.60
2015,11,26,19,34,1.60
2015,11,26,19,35,1.60
2015,11,26,19,36,1.60
2015,11,26,19,37,1.60
2015,11,26,19,38,1.60
2015,11,26,19,39,1.60
2015,11,26,19,40,1.60
2015,11,26,19,41,1.60
2015,11,26,19,42,1.60
2015,11,26,19,43,1.60
2015,11,26,19,44,1.60
2015,11,26,19,45,1.60
2015,11,26,19,46,1.60
2015,11,26,19,47,1.60
2015,11,26,19,48,1.50
2015,11,26,19,49,1.50
2015,11,26,19,50,1.50
2015,11,26,19,51,1.40
2015,11,26,19,52,1.40
2015,11,26,19,53,1.40
2015,11,26,19,54,1.40
2015,11,26,19,55,1.40
2015,11,26,19,56,1.40
2015,11,26,19,57,1.40
2015,11,26,19,58,1.50
2015,11,26,19,59,1.50
2015,11,26,20,00,1.50
2015,11,26,20,01,1.60
2015,11,26,20,02,1.60
2015,11,26,20,03,1.60
2015,11,26,20,04,1.70
2015,11,26,20,05,1.80
2015,11,26,20,06,1.80
2015,11,26,20,07,1.90
2015,11,26,20,08,2.00
2015,11,26,20,09,2.00
2015,11,26,20,10,2.10
2015,11,26,20,11,2.10
2015,11,26,20,12,2.20
2015,11,26,20,13,2.20
2015,11,26,20,14,2.20
2015,11,26,20,15,2.20
2015,11,26,20,16,2.20
2015,11,26,20,17,2.20
2015,11,26,20,18,2.10
2015,11,26,20,19,2.10
2015,11,26,20,20,2.10
2015,11,26,20,21,2.10
2015,11,26,20,22,2.00
2015,11,26,20,23,2.00
2015,11,26,20,24,1.90
2015,11,26,20,25,1.80
2015,11,26,20,26,1.70
2015,11,26,20,27,1.70
2015,11,26,20,28,1.60
2015,11,26,20,29,1.50
2015,11,26,20,30,1.50
2015,11,26,20,31,1.40
2015,11,26,20,32,1.40
2015,11,26,20,33,1.30
2015,11,26,20,34,1.30
2015,11,26,20,35,1.20
2015,11,26,20,36,1.20
2015,11,26,20,37,1.10
2015,11,26,20,38,1.10
2015,11,26,20,39,1.10
2015,11,26,20,40,1.00
2015,11,26,20,41,1.00
2015,11,26,20,42,1.00
2015,11,26,20,43,0.90
2015,11,26,20,44,0.90
2015,11,26,20,45,0.90
2015,11,26,20,46,0.80
2015,11,26,20,47,0.80
2015,11,26,20,48,0.80
2015,11,26,20,49,0.80
2015,11,26,20,50,0.80
2015,11,26,20,51,0.80
2015,11,26,20,52,0.80
2015,11,26,20,53,0.80
2015,11,26,20,54,0.80
2015,11,26,20,55,0.70
2015,11,26,20,56,0.70
2015,11,26,20,57,0.70
2015,11,26,20,58,0.70
2015,11,26,20,59,0.60
2015,11,26,21,00,0.60
2015,11,26,21,01,0.60
2015,11,26,21,02,0.60
2015,11,26,21,03,0.50
2015,11,26,21,04,0.50
2015,11,26,21,05,0.50
2015,11,26,21,06,0.50
2015,11,26,21,07,0.50
2015,11,26,21,08,0.40
2015,11,26,21,09,0.40
2015,11,26,21,10,0.40
2015,11,26,21,11,0.40
2015,11,26,21,12,0.40
2015,11,26,21,13,0.30
2015,11,26,21,14,0.30
2015,11,26,21,15,0.30
2015,11,26,21,16,0.30
2015,11,26,21,17,0.30
2015,11,26,21,18,0.20
2015,11,26,21,19,0.20
2015,11,26,21,20,0.20
2015,11,26,21,21,0.20
2015,11,26,21,22,0.20
2015,11,26,21,23,0.20
2015,11,26,21,24,0.10
2015,11,26,21,25,0.10
2015,11,26,21,26,0.10
2015,11,26,21,27,0.00
2015,11,26,21,28,0.00
2015,11,26,21,29,0.00
2015,11,26,21,30,-0.10
2015,11,26,21,31,-0.10
2015,11,26,21,32,-0.10
2015,11,26,21,33,-0.10
2015,11,26,21,34,-0.20
2015,11,26,21,35,-0.20
2015,11,26,21,36,-0.20
2015,11,26,21,37,-0.20
2015,11,26,21,38,-0.20
2015,11,26,21,39,-0.20
2015,11,26,21,40,-0.20
2015,11,26,21,41,-0.20
2015,11,26,21,42,-0.20
2015,11,26,21,43,-0.20
2015,11,26,21,44,-0.20
2015,11,26,21,45,-0.20
2015,11,26,21,46,-0.20
2015,11,26,21,47,-0.20
2015,11,26,21,48,-0.20
2015,11,26,21,49,-0.20
2015,11,26,21,50,-0.20
2015,11,26,21,51,-0.20
2015,11,26,21,52,-0.10
2015,11,26,21,53,-0.10
2015,11,26,21,54,-0.10
2015,11,26,21,55,-0.10
2015,11,26,21,56,-0.10
2015,11,26,21,57,-0.10
2015,11,26,21,58,-0.10
2015,11,26,21,59,-0.10
2015,11,26,22,00,-0.20
2015,11,26,22,01,-0.10
2015,11,26,22,02,-0.10
2015,11,26,22,03,-0.10
2015,11,26,22,04,0.00
2015,11,26,22,05,0.00
2015,11,26,22,06,0.00
2015,11,26,22,07,0.10
2015,11,26,22,08,0.10
2015,11,26,22,09,0.10
2015,11,26,22,10,0.10
2015,11,26,22,11,0.10
2015,11,26,22,12,0.00
2015,11,26,22,13,0.00
2015,11,26,22,14,0.00
2015,11,26,22,15,0.00
2015,11,26,22,16,-0.10
2015,11,26,22,17,-0.10
2015,11,26,22,18,-0.10
2015,11,26,22,19,-0.10
2015,11,26,22,20,-0.10
2015,11,26,22,21,-0.10
2015,11,26,22,22,-0.10
2015,11,26,22,23,-0.20
2015,11,26,22,24,-0.20
2015,11,26,22,25,-0.20
2015,11,26,22,26,-0.20
2015,11,26,22,27,-0.20
2015,11,26,22,28,-0.20
2015,11,26,22,29,-0.20
2015,11,26,22,30,-0.20
2015,11,26,22,31,-0.20
2015,11,26,22,32,-0.30
2015,11,26,22,33,-0.30
2015,11,26,22,34,-0.30
2015,11,26,22,35,-0.30
2015,11,26,22,36,-0.30
2015,11,26,22,37,-0.30
2015,11,26,22,38,-0.30
2015,11,26,22,39,-0.30
2015,11,26,22,40,-0.30
2015,11,26,22,41,-0.30
2015,11,26,22,42,-0.30
2015,11,26,22,43,-0.30
2015,11,26,22,44,-0.30
2015,11,26,22,45,-0.30
2015,11,26,22,46,-0.40
2015,11,26,22,47,-0.40
2015,11,26,22,48,-0.40
2015,11,26,22,49,-0.40
2015,11,26,22,50,-0.40
2015,11,26,22,51,-0.30
2015,11,26,22,52,-0.30
2015,11,26,22,53,-0.30
2015,11,26,22,54,-0.30
2015,11,26,22,55,-0.30
2015,11,26,22,56,-0.30
2015,11,26,22,57,-0.20
2015,11,26,22,58,-0.20
2015,11,26,22,59,-0.20
2015,11,26,23,00,-0.10
2015,11,26,23,01,-0.10
2015,11,26,23,02,-0.10
2015,11,26,23,03,-0.20
2015,11,26,23,04,-0.20
2015,11,26,23,05,-0.20
2015,11,26,23,06,-0.30
2015,11,26,23,07,-0.30
2015,11,26,23,08,-0.30
2015,11,26,23,09,-0.40
2015,11,26,23,10,-0.40
2015,11,26,23,11,-0.50
2015,11,26,23,12,-0.50
2015,11,26,23,13,-0.50
2015,11,26,23,14,-0.60
2015,11,26,23,15,-0.60
2015,11,26,23,16,-0.60
2015,11,26,23,17,-0.60
2015,11,26,23,18,-0.60
2015,11,26,23,19,-0.60
2015,11,26,23,20,-0.60
2015,11,26,23,21,-0.50
2015,11,26,23,22,-0.50
2015,11,26,23,23,-0.40
2015,11,26,23,24,-0.40
2015,11,26,23,25,-0.30
2015,11,26,23,26,-0.30
2015,11,26,23,27,-0.30
2015,11,26,23,28,-0.20
2015,11,26,23,29,-0.20
2015,11,26,23,30,-0.20
2015,11,26,23,31,-0.20
2015,11,26,23,32,-0.20
2015,11,26,23,33,-0.20
2015,11,26,23,34,-0.30
2015,11,26,23,35,-0.30
2015,11,26,23,36,-0.30
2015,11,26,23,37,-0.20
2015,11,26,23,38,-0.20
2015,11,26,23,39,-0.20
2015,11,26,23,40,-0.20
2015,11,26,23,41,-0.10
2015,11,26,23,42,-0.10
2015,11,26,23,43,-0.10
2015,11,26,23,44,0.00
2015,11,26,23,45,0.10
2015,11,26,23,46,0.20
2015,11,26,23,47,0.30
2015,11,26,23,48,0.40
2015,11,26,23,49,0.50
2015,11,26,23,50,0.60
2015,11,26,23,51,0.70
2015,11,26,23,52,0.80
2015,11,26,23,53,0.90
2015,11,26,23,54,1.00
2015,11,26,23,55,1.10
2015,11,26,23,56,1.20
2015,11,26,23,57,1.30
2015,11,26,23,58,1.30
2015,11,26,23,59,1.40
